Location: Hickory_CSC
(35.7330°N, 81.3330°W)
Time: 17:04:46
(UTC-04:00)

ISS - All Passes

Search period start: 04 September 2015 00:00
Search period end: 14 September 2015 00:00
Orbit: 400 x 402 km, 51.6° (Epoch: 04 September)

Date Brightness Start Highest point End Pass type
(mag) Time Alt. Az. Time Alt. Az. Time Alt. Az.
04 Sep - 08:00:18 10° SW 08:03:33 87° NW 08:06:49 10° NE daylight
04 Sep - 09:38:51 10° NW 09:40:24 13° NNW 09:41:54 10° N daylight
04 Sep - 14:30:24 10° NNW 14:33:18 29° NE 14:36:12 10° E daylight
04 Sep - 16:06:59 10° WNW 16:09:36 22° SW 16:12:11 10° S daylight
05 Sep - 07:07:14 10° SSW 07:10:17 40° SE 07:13:22 10° ENE daylight
05 Sep - 08:44:20 10° W 08:46:49 20° NNW 08:49:17 10° NNE daylight
05 Sep - 13:37:31 10° NNW 13:39:46 17° NNE 13:42:05 10° ENE daylight
05 Sep - 15:13:14 10° WNW 15:16:24 49° SW 15:19:32 10° SSE daylight
06 Sep - 06:14:45 10° S 06:17:04 19° SE 06:19:28 10° E visible
06 Sep - 07:50:19 10° WSW 07:53:20 34° NW 07:56:21 10° NNE daylight
06 Sep - 12:45:03 10° N 12:46:10 11° NNE 12:47:20 10° NE daylight
06 Sep - 14:19:51 10° NW 14:23:06 71° NE 14:26:20 10° SE daylight
07 Sep - 06:56:41 10° SW 06:59:56 72° NW 07:03:11 10° NE daylight
07 Sep - 08:35:39 10° NW 08:36:51 11° NNW 08:38:00 10° N daylight
07 Sep - 13:26:42 10° NNW 13:29:41 34° NE 13:32:42 10° ESE daylight
07 Sep - 15:03:33 10° W 15:05:57 19° SW 15:08:16 10° S daylight
08 Sep - 06:03:28 10° SSW 06:06:37 49° SE 06:09:47 10° ENE visible
08 Sep - 07:40:54 10° WNW 07:43:13 18° NNW 07:45:30 10° NNE daylight
08 Sep - 12:33:44 10° NNW 12:36:10 19° NNE 12:38:39 10° E daylight
08 Sep - 14:09:37 10° WNW 14:12:43 40° SW 14:15:46 10° SSE daylight
09 Sep - 05:10:47 10° S 05:13:22 22° SE 05:15:59 10° ENE visible
09 Sep - 06:46:45 10° W 06:49:40 29° NW 06:52:35 10° NNE daylight
09 Sep - 11:41:04 10° N 11:42:32 12° NNE 11:44:04 10° NE daylight
09 Sep - 13:16:08 10° NW 13:19:24 86° NE 13:22:39 10° SE daylight
10 Sep - 04:19:39 10° SE 04:20:09 10° SE 04:20:48 10° ESE visible
10 Sep - 05:53:01 10° WSW 05:56:13 59° NW 05:59:26 10° NE visible
10 Sep - 07:32:31 10° NW 07:33:13 10° NNW 07:33:52 10° N daylight
10 Sep - 12:22:54 10° NW 12:25:59 39° NE 12:29:04 10° ESE daylight
10 Sep - 14:00:05 10° W 14:02:11 16° SW 14:04:11 10° SSW daylight
11 Sep - 04:59:38 10° SW 05:02:51 60° SE 05:06:04 10° NE visible
11 Sep - 06:37:24 10° WNW 06:39:32 16° NNW 06:41:37 10° NNE visible
11 Sep - 11:29:52 10° NNW 11:32:27 22° NNE 11:35:05 10° E daylight
11 Sep - 13:05:57 10° WNW 13:08:56 33° SW 13:11:53 10° SSE daylight
12 Sep - 04:06:48 10° S 04:09:33 26° SE 04:12:21 10° ENE visible
12 Sep - 05:43:07 10° W 05:45:56 26° NNW 05:48:43 10° NNE visible
12 Sep - 10:37:05 10° N 10:38:49 14° NNE 10:40:38 10° ENE daylight
12 Sep - 12:12:22 10° NW 12:15:37 79° SW 12:18:51 10° SE daylight
13 Sep - 03:14:54 10° SSE 03:16:18 12° SE 03:17:49 10° E night (unlit)
13 Sep - 04:49:15 10° WSW 04:52:25 50° NW 04:55:36 10° NE visible
13 Sep - 11:19:02 10° NW 11:22:11 46° NE 11:25:20 10° ESE daylight
13 Sep - 12:56:38 10° W 12:58:20 13° SW 12:59:55 10° SSW daylight
